STARLINK-11124, 59952

Orbit data source: Space-Track

STARLINK-11124, 59952 is a payload satellite owned by SpaceX/Seattle (US) in LEO that was launched on Wed, 05 Jun 2024 UTC via an FALCON 9 launch vehicle from the Air Force Eastern Test Range (AFETR). Payload-class satellites include a variety of spacecraft equipped with specific instruments for various scientific and technological missions. These include communications satellites like Starlink; space stations such as the ISS; scientific satellites like the Hubble; Earth observation satellites from companies like Planet Labs, Umbra, and HawkEye 360; GPS; miniature CubeSats for education and research; and military/defense satellites.

Loading next visibility...
Identifier
59952, 2024-107H
Orbit
LEO
Last TLE update
15 hours ago
Origin
Manufacturer
SpaceX/Seattle
Mission
Operational spacecraft
Bus & Motor
STARLINK V2M, Unknown motor
Mass
730 kg wet, ~700 kg dry
Launch date (UTC)
2024-06-05 (11 months ago)
Launch vehicle
FALCON 9
Launch site
Air Force Eastern Test Range (AFETR)
Object type
Payload
Rocket body
Debris
Shape & HBR
Unknown
Radar Cross Section
Large (>1 m²)

Expand to show TLE details & history

TLE from 15 hours ago
0 STARLINK-11124
1 59952U 24107H   25128.76494776  .00001328  00000-0  15807-4 0  9991
2 59952  53.1599 314.4608 0000620 117.3095 242.7986 15.69717482 54326
Epoch: 2025-05-08T18:21Z
Definitive object data (Epoch: 2025-05-08T18:21:31.486Z)
Latitude
-0.00003°
Longitude
172.24884°
Altitude
360.811 km
Speed
7.694 km/s
True Right ascension
20h 57m 50s
True Declination
0° 00' 00"
Sunlit
Object was in daylight at TLE epoch
Visualization TLE readout
Latitude
-51.76195°
Longitude
98.19389°
Altitude
378.022 km
Speed
7.682 km/s
Apparent Right ascension
09h 15m 23s
Apparent Declination
-78° 54' 27"
Sunlit
Object is in full shadow
Visualization observer readout
Local Sidereal Time
17:27:41
Azimuth
193.238° SSW
Elevation
-45.252°
Doppler factor
1
Orbital elements
Apogee altitude
360.384 km
Perigee altitude
359.548 km
Semi-major axis
6,738.103 km
Eccentricity
0.000062
Inclination
53.1599°
RAAN
314.4608°
Arg. of periapsis
117.3095°
True anomaly
242.79228°
Mean anomaly
242.7986°
Eccentric anomaly
242.79544°
Mean motion
3.92407 °/min
BSTAR
0.000015807
Orbital period
91.74 mins
Loading maneuver chart data...
Loading SW <> Apogee altitude chart data...
Loading historical data...
Loading historical data...
Loading historical data...
Loading historical data...
Loading historical data...
Loading historical data...
Loading historical data...

STARLINK-11124 Visibility forecast

Observer location: undefined°, undefined°

Span
Click to sort rows by Start time (UTC) header in descending order
Start Az.
Max El. time (UTC)
Max El. Az.
Max El.
End time (UTC)
End Az.
4 mins2025-05-09 14:23:23.256Z190.165° SSW2025-05-09 14:25:23.256Z138.098° SSE25.478°2025-05-09 14:27:23.256Z79.161° E
|